EN

Hourly Weather Allariz

Today, 28 January, Thursday

Time Temperature Precipitation Wind Pressure Humidity
00:00 +12°C° 0 mm 1 mps 717 mmHg 96%
01:00 +12°C° 0 mm 1 mps 717 mmHg 97%
02:00 +11°C° 0 mm 1 mps 717 mmHg 97%
03:00 +12°C° 0 mm 1 mps 717 mmHg 97%
04:00 +12°C° 0 mm 1 mps 717 mmHg 96%
05:00 +12°C° 0 mm 1 mps 716 mmHg 96%
06:00 +12°C° 0 mm 1 mps 716 mmHg 96%
07:00 +12°C° 0 mm 1 mps 717 mmHg 95%
08:00 +12°C° 0 mm 1 mps 717 mmHg 95%
09:00 +13°C° 0 mm 2 mps 717 mmHg 93%
10:00 +14°C° 0 mm 2 mps 717 mmHg 91%
11:00 +15°C° 0 mm 2 mps 717 mmHg 88%
12:00 +15°C° 0 mm 2 mps 716 mmHg 89%
13:00 +15°C° 0 mm 2 mps 715 mmHg 90%
14:00 +14°C° 0 mm 2 mps 715 mmHg 90%
15:00 +14°C° 0.1 mm 2 mps 715 mmHg 92%
16:00 +14°C° 0.1 mm 2 mps 715 mmHg 93%
17:00 +13°C° 0.1 mm 2 mps 715 mmHg 94%
18:00 +13°C° 0.2 mm 2 mps 715 mmHg 94%
19:00 +13°C° 0.2 mm 2 mps 715 mmHg 95%
20:00 +12°C° 0.2 mm 2 mps 715 mmHg 95%
21:00 +12°C° 0.2 mm 2 mps 715 mmHg 96%
22:00 +12°C° 0.2 mm 2 mps 715 mmHg 96%
23:00 +12°C° 0.2 mm 2 mps 715 mmHg 96%

Tomorrow, 29 January, Friday

Time Temperature Precipitation Wind Pressure Humidity
00:00 +12°C° 0.1 mm 2 mps 715 mmHg 96%
01:00 +12°C° 0.1 mm 2 mps 715 mmHg 96%
02:00 +12°C° 0.1 mm 2 mps 714 mmHg 96%
03:00 +12°C° 0.2 mm 2 mps 714 mmHg 97%
04:00 +12°C° 0.2 mm 1 mps 714 mmHg 97%
05:00 +12°C° 0.2 mm 1 mps 714 mmHg 97%
06:00 +12°C° 0.1 mm 1 mps 714 mmHg 97%
07:00 +12°C° 0.1 mm 2 mps 715 mmHg 97%
08:00 +12°C° 0.1 mm 2 mps 715 mmHg 97%
09:00 +13°C° 0.1 mm 2 mps 715 mmHg 95%
10:00 +13°C° 0.1 mm 2 mps 714 mmHg 93%
11:00 +14°C° 0.1 mm 2 mps 714 mmHg 92%
12:00 +14°C° 0 mm 2 mps 714 mmHg 91%
13:00 +13°C° 0 mm 3 mps 713 mmHg 90%
14:00 +13°C° 0 mm 3 mps 713 mmHg 90%
15:00 +12°C° 0 mm 3 mps 712 mmHg 90%
16:00 +11°C° 0 mm 3 mps 712 mmHg 90%
17:00 +10°C° 0 mm 3 mps 711 mmHg 90%
18:00 +10°C° 0 mm 4 mps 711 mmHg 90%
19:00 +10°C° 0 mm 4 mps 711 mmHg 90%
20:00 +10°C° 0 mm 4 mps 710 mmHg 90%
21:00 +9°C° 4.5 mm 5 mps 710 mmHg 92%
22:00 +9°C° 4.5 mm 5 mps 710 mmHg 94%
23:00 +8°C° 4.5 mm 6 mps 709 mmHg 95%

Day after tomorrow, 30 January, Saturday

Time Temperature Precipitation Wind Pressure Humidity
00:00 +8°C° 1 mm 5 mps 709 mmHg 94%
01:00 +7°C° 1 mm 5 mps 709 mmHg 93%
02:00 +6°C° 1 mm 5 mps 710 mmHg 92%
03:00 +6°C° 0.2 mm 5 mps 710 mmHg 93%
04:00 +6°C° 0.2 mm 5 mps 710 mmHg 93%
05:00 +5°C° 0.2 mm 5 mps 710 mmHg 93%
06:00 +5°C° 0.2 mm 5 mps 710 mmHg 92%
07:00 +4°C° 0.2 mm 6 mps 710 mmHg 92%
08:00 +4°C° 0.2 mm 6 mps 711 mmHg 91%
09:00 +5°C° 0.2 mm 6 mps 711 mmHg 90%
10:00 +5°C° 0.2 mm 7 mps 711 mmHg 88%
11:00 +5°C° 0.2 mm 7 mps 711 mmHg 87%
12:00 +5°C° 0.2 mm 7 mps 711 mmHg 88%
13:00 +5°C° 0.2 mm 7 mps 711 mmHg 89%
14:00 +4°C° 0.2 mm 7 mps 711 mmHg 89%
15:00 +4°C° 0.1 mm 7 mps 711 mmHg 90%
16:00 +4°C° 0.1 mm 7 mps 711 mmHg 91%
17:00 +4°C° 0.1 mm 6 mps 712 mmHg 91%
18:00 +4°C° 0.1 mm 6 mps 712 mmHg 92%
19:00 +5°C° 0.1 mm 5 mps 712 mmHg 92%
20:00 +5°C° 0.1 mm 5 mps 713 mmHg 92%
21:00 +5°C° 0 mm 4 mps 713 mmHg 93%
22:00 +5°C° 0 mm 3 mps 713 mmHg 94%
23:00 +5°C° 0 mm 3 mps 713 mmHg 95%

31 January, Sunday

Time Temperature Precipitation Wind Pressure Humidity
00:00 +7°C° 0.5 mm 3 mps 713 mmHg 96%
01:00 +7°C° 0.5 mm 2 mps 713 mmHg 97%
02:00 +7°C° 0.5 mm 2 mps 713 mmHg 97%
03:00 +7°C° 0.1 mm 2 mps 712 mmHg 97%
04:00 +7°C° 0.1 mm 2 mps 712 mmHg 96%
05:00 +7°C° 0.1 mm 2 mps 712 mmHg 96%
06:00 +7°C° 0 mm 2 mps 712 mmHg 96%
07:00 +8°C° 0 mm 2 mps 712 mmHg 96%
08:00 +8°C° 0 mm 2 mps 712 mmHg 95%
09:00 +9°C° 0.2 mm 2 mps 712 mmHg 96%
10:00 +9°C° 0.2 mm 2 mps 712 mmHg 96%
11:00 +10°C° 0.2 mm 3 mps 712 mmHg 96%
12:00 +10°C° 0.4 mm 3 mps 712 mmHg 96%
13:00 +11°C° 0.4 mm 3 mps 712 mmHg 96%
14:00 +11°C° 0.4 mm 3 mps 711 mmHg 95%
15:00 +11°C° 0.2 mm 4 mps 712 mmHg 95%
16:00 +11°C° 0.2 mm 4 mps 712 mmHg 95%
17:00 +10°C° 0.2 mm 4 mps 712 mmHg 95%
18:00 +10°C° 0.1 mm 3 mps 713 mmHg 96%
19:00 +10°C° 0.1 mm 3 mps 713 mmHg 96%
20:00 +9°C° 0.1 mm 2 mps 713 mmHg 96%
21:00 +9°C° 0 mm 2 mps 713 mmHg 97%
22:00 +9°C° 0 mm 2 mps 713 mmHg 97%
23:00 +10°C° 0 mm 1 mps 713 mmHg 97%

1 February, Monday

Time Temperature Precipitation Wind Pressure Humidity
00:00 +10°C° 0 mm 1 mps 713 mmHg 97%
01:00 +10°C° 0 mm 1 mps 713 mmHg 97%
02:00 +10°C° 0 mm 1 mps 713 mmHg 96%
03:00 +10°C° 0 mm 1 mps 713 mmHg 96%
04:00 +9°C° 0 mm 1 mps 713 mmHg 96%
05:00 +9°C° 0 mm 1 mps 713 mmHg 96%
06:00 +8°C° 0 mm 2 mps 713 mmHg 95%
07:00 +9°C° 0 mm 2 mps 714 mmHg 95%
08:00 +9°C° 0 mm 2 mps 714 mmHg 94%
09:00 +9°C° 0 mm 2 mps 714 mmHg 93%
10:00 +10°C° 0 mm 2 mps 714 mmHg 92%
11:00 +12°C° 0 mm 2 mps 714 mmHg 91%
12:00 +12°C° 0.1 mm 2 mps 714 mmHg 92%
13:00 +12°C° 0.1 mm 2 mps 713 mmHg 93%
14:00 +12°C° 0.1 mm 2 mps 713 mmHg 94%
15:00 +12°C° 0.1 mm 2 mps 713 mmHg 95%
16:00 +10°C° 0.1 mm 2 mps 713 mmHg 95%
17:00 +10°C° 0.1 mm 2 mps 713 mmHg 96%
18:00 +10°C° 0.1 mm 2 mps 713 mmHg 95%
19:00 +10°C° 0.1 mm 2 mps 713 mmHg 95%
20:00 +10°C° 0.1 mm 2 mps 713 mmHg 95%
21:00 +10°C° 0.1 mm 2 mps 713 mmHg 95%
22:00 +9°C° 0.1 mm 2 mps 713 mmHg 94%
23:00 +9°C° 0.1 mm 2 mps 713 mmHg 94%

2 February, Tuesday

Time Temperature Precipitation Wind Pressure Humidity
00:00 +9°C° 0 mm 2 mps 713 mmHg 94%
01:00 +9°C° 0 mm 2 mps 713 mmHg 94%
02:00 +9°C° 0 mm 2 mps 713 mmHg 94%
03:00 +9°C° 0 mm 2 mps 712 mmHg 94%
04:00 +9°C° 0 mm 2 mps 712 mmHg 94%
05:00 +9°C° 0 mm 2 mps 712 mmHg 94%
06:00 +9°C° 0 mm 3 mps 712 mmHg 94%
07:00 +9°C° 0 mm 3 mps 712 mmHg 93%
08:00 +9°C° 0 mm 3 mps 711 mmHg 93%
09:00 +10°C° 0 mm 3 mps 711 mmHg 90%
10:00 +10°C° 0 mm 4 mps 711 mmHg 88%
11:00 +10°C° 0 mm 5 mps 711 mmHg 85%
12:00 +10°C° 0.1 mm 5 mps 710 mmHg 85%
13:00 +10°C° 0.1 mm 5 mps 709 mmHg 84%
14:00 +10°C° 0.1 mm 5 mps 708 mmHg 84%
15:00 +9°C° 0.2 mm 5 mps 708 mmHg 85%
16:00 +9°C° 0.2 mm 5 mps 708 mmHg 86%
17:00 +9°C° 0.2 mm 5 mps 707 mmHg 87%
18:00 +10°C° 2 mm 4 mps 707 mmHg 90%
19:00 +10°C° 2 mm 4 mps 707 mmHg 92%
20:00 +10°C° 2 mm 4 mps 707 mmHg 95%
21:00 +10°C° 3.1 mm 4 mps 706 mmHg 95%
22:00 +10°C° 3.1 mm 4 mps 706 mmHg 95%
23:00 +8°C° 3.1 mm 4 mps 706 mmHg 95%
Show more